Hourly Data Report for October 08, 2019

PINAWA
MANITOBA
Current Station Operator: ECCC - MSC

50°10'38.020" N
96°03'53.000" W
268.00 m
503B1ER
71448
WEA

Download Data

Hourly Data (October 2019)
Hourly Data Report for October 8, 2019
TIME
LST
Temp Definition
°C
Dew Point Definition
°C
Rel Hum Definition
%
Precip. Amount Definition
mm

Wind Dir Definition
10's deg

Wind Spd Definition
km/h
Visibility Definition
km
Stn Press Definition
kPa
Hmdx Definition


Wind Chill Definition


Weather Definition


00:00 10.3 LegendMM LegendMM LegendMM 16 9   97.46     LegendNANA
01:00 9.9 LegendMM LegendMM LegendMM 16 9   97.39     LegendNANA
02:00 9.6 LegendMM LegendMM LegendMM 15 10   97.33     LegendNANA
03:00 9.5 LegendMM LegendMM LegendMM 16 11   97.24     LegendNANA
04:00 9.6 LegendMM LegendMM LegendMM 16 13   97.16     LegendNANA
05:00 9.7 LegendMM LegendMM LegendMM 16 14   97.09     LegendNANA
06:00 9.6 LegendMM LegendMM LegendMM 16 13   97.03     LegendNANA
07:00 9.1 LegendMM LegendMM LegendMM 15 13   96.95     LegendNANA
08:00 9.8 LegendMM LegendMM LegendMM 15 14   96.91     LegendNANA
09:00 12.5 LegendMM LegendMM LegendMM 16 11   96.90     LegendNANA
10:00 15.1 LegendMM LegendMM LegendMM 17 10   96.93     LegendNANA
11:00 16.5 LegendMM LegendMM LegendMM 18 10   96.93     LegendNANA
12:00 18.4 LegendMM LegendMM LegendMM 17 11   96.91     LegendNANA
13:00 19.6 LegendMM LegendMM LegendMM 17 10   96.91     LegendNANA
14:00 20.4 LegendMM LegendMM LegendMM 17 11   96.90     LegendNANA
15:00 21.3 LegendMM LegendMM LegendMM 18 9   96.93     LegendNANA
16:00 20.1 LegendMM LegendMM LegendMM 18 8   96.96     LegendNANA
17:00 18.7 LegendMM LegendMM LegendMM 17 9   97.02     LegendNANA
18:00 17.2 LegendMM LegendMM LegendMM 20 3   97.13     LegendNANA
19:00 12.9 LegendMM LegendMM LegendMM 12 3   97.21     LegendNANA
20:00 14.0 LegendMM LegendMM LegendMM 14 4   97.24     LegendNANA
21:00 11.4 LegendMM LegendMM LegendMM 0 1   97.29     LegendNANA
22:00 10.3 LegendMM LegendMM LegendMM 0 1   97.30     LegendNANA
23:00 9.8 LegendMM LegendMM LegendMM 0 1   97.37     LegendNANA

Notes on Data Quality.

Legend

  • E = Estimated
  • M = Missing
  • NA = Not Available*
  • [empty] = Indicates an unobserved value
Date modified: